STARLINK-11728, 64323

Orbit data source: Space-Track

STARLINK-11728, 64323 is a payload satellite owned by SpaceX/Seattle (US) in LEO that was launched on Tue, 10 Jun 2025 UTC via an FALCON 9 launch vehicle from the Air Force Eastern Test Range (AFETR). Payload-class satellites include a variety of spacecraft equipped with specific instruments for various scientific and technological missions. These include communications satellites like Starlink; space stations such as the ISS; scientific satellites like the Hubble; Earth observation satellites from companies like Planet Labs, Umbra, and HawkEye 360; GPS; miniature CubeSats for education and research; and military/defense satellites.

Loading next visibility...
Identifier
64323, 2025-124G
Orbit
LEO
Country
Flag of USUS
Related business
Manufacturer
SpaceX/Seattle
Mission
Operational Commercial Communications
Bus & Motor
STARLINK V2M, Unknown motor
Mass
730 kg wet, ~700 kg dry
Launch date (UTC)
2025-06-10 (3 months ago)
Launch vehicle
FALCON 9
Launch site
Air Force Eastern Test Range (AFETR)
Object type
Payload
Rocket body
Debris
Shape & HBR
Box + 2 Pan, 14.5 m
Radar Cross Section
36.964 m², Large (>1 m²)

Expand to show TLE details & history
Last TLE update: 6 hours ago

TLE from 6 hours ago
0 STARLINK-11728
1 64323U 25124G   25242.90858939  .00302424  00000-0  22660-2 0  9991
2 64323  42.9993  98.8121 0002684 276.6253  83.4309 15.70940134 12831
Epoch: 2025-08-30T21:48Z
TLE epoch observation values (Epoch: 2025-08-30T21:48:22.123Z)
Latitude
-0.00002°
Longitude
152.38377°
Altitude
355.774 km
Speed
7.698 km/s
True Right ascension
06h 35m 14s
True Declination
0° 00' 00"
Sunlit
Object was in daylight at epoch
Visualization orbit readout
Latitude
Unknown
Longitude
Unknown
Altitude
Unknown
Speed
Unknown
Apparent Right ascension
Unknown
Apparent Declination
Unknown
Sunlit
N/A
Visualization observer readout
Local Sidereal Time
19:09:20
Azimuth
Unknown
Elevation
Unknown
Doppler factor
Unknown
Orbital elements
Apogee altitude
359.999 km
Perigee altitude
356.383 km
Semi-major axis
6,736.328 km
Eccentricity
0.00027
Inclination
42.9993°
RAAN
98.8121°
Arg. of periapsis
276.6253°
True anomaly
83.46146°
Mean anomaly
83.4309°
Eccentric anomaly
83.44618°
Mean motion
3.92562 °/min
Orbital period
91.71 mins
BSTAR
0.002266
Loading maneuver chart data...
Computing Atmospheric mass density...
Loading historical data...
Loading historical data...
Loading historical data...
Loading historical data...
Loading historical data...
Loading historical data...
Loading historical data...

Documentation

Showing up to 5 results
|